Location: Hall+in+Tirol
(47.2830°N, 11.5170°E)
Time: 14:09:26
(UTC+02:00)

Gurwin Techsat 1B - Visible Passes

Search period start: 01 September 2015 00:00
Search period end: 11 September 2015 00:00
Orbit: 811 x 815 km, 98.5° (Epoch: 31 August)

Date Brightness Start Highest point End Pass type
(mag) Time Alt. Az. Time Alt. Az. Time Alt. Az.
01 Sep 10.5 02:37:15 10° NE 02:41:07 21° E 02:42:02 20° ESE visible
01 Sep 8.7 04:16:19 10° N 04:21:35 61° WNW 04:23:15 41° SW visible
01 Sep 10.6 05:59:04 10° NW 06:00:37 11° NW 06:01:56 10° WNW visible
02 Sep 11.0 02:15:41 10° ENE 02:18:00 13° E 02:18:56 13° E visible
02 Sep 8.5 03:53:31 10° NNE 03:58:52 88° ESE 04:00:08 54° SSW visible
02 Sep 10.3 05:34:55 10° NNW 05:38:12 16° WNW 05:41:19 10° W visible
03 Sep 9.0 03:30:49 10° NNE 03:36:04 58° E 03:37:01 50° SE visible
03 Sep 9.9 05:11:31 10° N 05:15:43 24° WNW 05:18:13 17° W visible
04 Sep 9.6 03:08:17 10° NNE 03:13:12 37° E 03:13:54 36° ESE visible
04 Sep 9.4 04:48:22 10° N 04:53:10 34° WNW 04:55:06 26° WSW visible
05 Sep 10.3 02:45:58 10° NE 02:50:14 25° E 02:50:47 24° E visible
05 Sep 8.9 04:25:23 10° N 04:30:32 51° WNW 04:31:59 40° WSW visible
06 Sep 10.8 02:24:04 10° NE 02:27:09 16° E 02:27:40 16° E visible
06 Sep 8.5 04:02:31 10° NNE 04:07:52 78° WNW 04:08:52 59° SW visible
06 Sep 10.5 05:44:19 10° NNW 05:47:04 14° NW 05:49:37 10° W visible
07 Sep 8.7 03:39:46 10° NNE 03:45:06 69° ESE 03:45:45 63° SE visible
07 Sep 10.1 05:20:45 10° NNW 05:24:37 20° WNW 05:26:57 15° W visible
08 Sep 9.3 03:17:10 10° NNE 03:22:16 45° E 03:22:37 44° ESE visible
08 Sep 9.6 04:57:30 10° N 05:02:05 29° WNW 05:03:50 24° W visible
09 Sep 10.1 02:54:45 10° NE 02:59:20 29° E 02:59:30 29° E visible
09 Sep 9.1 04:34:27 10° N 04:39:30 43° WNW 04:40:42 37° WSW visible
10 Sep 10.6 02:32:39 10° NE 02:36:18 19° E 02:36:23 19° E visible
10 Sep 8.6 04:11:32 10° N 04:16:50 66° WNW 04:17:35 58° WSW visible
10 Sep 10.6 05:53:54 10° NNW 05:55:56 12° NW 05:57:43 10° WNW visible
